Location: ???? ??
(36.0534°N, 43.5630°E)
Time: 12:46:25
(UTC+00:00)

Cosmos 407 Rocket - Pass Details

Date: 18 September 2019
Orbit: 744 x 786 km, 74.0° (Epoch: 18 October)

Event Time Altitude Azimuth Distance (km) Brightness Sun altitude
Rises 16:33:33 0° 352° (N) 3,195 7.0 -17.6°
Reaches altitude 10° 16:36:08 10° 1° (N) 2,265 6.1 -18.1°
Maximum altitude 16:40:47 34° 67° (ENE) 1,205 4.1 -19.0°
Enters shadow 16:41:17 34° 79° (E) 1,223 4.1 -19.1°
